Regional Weather Roundup
Issued by NWS

Home | Current Version | Previous Version | Text Only | Print | Product List | Glossary On
Versions: 1 2 3 4 5 6 7 8 9 10 11 12 13 14 15 16 17 18 19 20 21 22 23 24 25 26 27 28 29 30 31 32 33 34 35 36 37 38 39 40 41 42 43 44 45 46 47 48 49 50
382
ASUS45 KTFX 230910
RWRMT
MONTANA REGIONAL WEATHER ROUNDUP
NATIONAL WEATHER SERVICE GREAT FALLS MT
200 AM MST MON JAN 23 2017

NOTE: "FAIR" INDICATES FEW OR NO CLOUDS BELOW 12000 FEET WITH NO
SIGNIFICANT WEATHER AND/OR OBSTRUCTIONS TO VISIBILITY.

MTZ001>007-043-231000-
WEST OF THE DIVIDE

CITY           SKY/WX    TMP DP  RH WIND       PRES   REMARKS
KALISPELL      CLOUDY    32  24  72 NE13      29.62R WCI  22
MISSOULA       MOCLDY    28  28 100 E7        29.61S WCI  21
BUTTE          CLOUDY    11   7  84 NE3       29.60R
MULLAN PASS    CLOUDY    24  21  88 CALM      29.50S
ANACONDA         N/A     19  16  86 S7        29.58S WCI  10
DEER LODGE       N/A     25  18  74 W5        29.59F
EUREKA           N/A     25  23  93 CALM      29.66F
HAMILTON         N/A     27  27 100 CALM        N/A
PLAINS           N/A     25  21  84 CALM      29.66S
RONAN            N/A     25  23  91 CALM      29.68R
$$

MTZ008-052>055-231000-
SOUTHWEST MONTANA

CITY           SKY/WX    TMP DP  RH WIND       PRES   REMARKS
BOZEMAN        CLOUDY    17  13  84 S7        29.60F WCI   8
DILLON         CLOUDY   N/A N/A N/A S8        29.60R
W YELLOWSTONE  CLOUDY    19  19 100 CALM      29.62S
ENNIS          CLEAR     25  19  80 S14       29.64R WCI  13
$$

MTZ009-010-012-014-046-048-049-054-231000-
EAST SLOPES AND CENTRAL MONTANA

CITY           SKY/WX    TMP DP  RH WIND       PRES   REMARKS
CUT BANK       LGT SNOW  22  21  96 N10       29.69S FOG     WCI  11
GREAT FALLS    LGT SNOW  23  21  92 NE6       29.67F FOG     WCI  16
MALMSTROM AFB  FLURRIES  24  24 100 N5        29.69F
HELENA         CLOUDY    22  19  89 W3        29.64S FOG
AUGUSTA        CLOUDY    20  19  98 N7        29.65F WCI  11
BOWMANS CRNR   LGT SNOW  19  19  96 NE5       29.63S
CHOTEAU          N/A     23  23 100 N3        29.70S FOG
CONRAD           N/A     24  24 100 CALM      29.73F
POWER          FLURRIES  22  21  96 NW6       29.67F WCI  14
RAYNESFORD     MOCLDY    22  22  97 NW6       29.66F WCI  15
ULM            LGT SNOW  23  22  99 MISG      29.69R
$$

MTZ011-013-016-021-045-047-050-051-231000-
NORTH CENTRAL MONTANA

CITY           SKY/WX    TMP DP  RH WIND       PRES   REMARKS
HAVRE          CLOUDY    27  26  96 E5        29.74F
LEWISTOWN      FOG       21  19  92 CALM      29.65R VSB 1/4
CHINOOK          N/A     28  27  93 CALM      29.75F
DENTON         FOG       24  23  97 E12G22    29.64S VSB 3/16WCI  13
FORT BENTON      N/A    N/A N/A N/A MISG      29.74S
GEYSER         FOG       23  22  96 NE9       29.64F VSB 7/8 WCI  13
GRASS RANGE      N/A     23  22  98 NE5       29.63R FOG
JUDITH GAP       N/A     19  15  84 SW9       29.60F WCI   8
ROY            FOG       21  20  96 MISG      29.67R VSB 3/8
STANFORD       SNOWSHWR  22  22  98 NW9       29.64R FOG     WCI  12
WINIFRED       SNOW      23  23  99 E8        29.66S VSB 1/2 WCI  14
$$

MTZ017>020-022>027-061-062-231000-
NORTHEAST MONTANA

CITY           SKY/WX    TMP DP  RH WIND       PRES   REMARKS
GLASGOW        CLOUDY    28  24  85 VRB3      29.76R
JORDAN           N/A     25  23  92 E8        29.72F WCI  16
SIDNEY         CLOUDY    29  25  85 CALM      29.78F
WOLF POINT     CLOUDY    30  25  81 CALM      29.78F
PLENTYWOOD       N/A     25  23  93 W3        29.77R
POPLAR           N/A     28  25  86 CALM      29.78S
$$

MTZ028>42-056>058-231000-
SOUTHCENTRAL AND SOUTHEAST MONTANA

CITY           SKY/WX    TMP DP  RH WIND       PRES   REMARKS
BAKER          FOG       22  20  92 E13       29.74S VSB 1/4 WCI  10
BILLINGS       CLOUDY    22  19  89 NW6       29.65S WCI  14
LIVINGSTON     CLOUDY    23  17  78 CALM      29.59F
MILES CITY     CLOUDY    23  20  88 E3        29.73S FOG
BIG TIMBER     PTCLDY    25  19  80 CALM      29.63S
EKALAKA          N/A     22  16  78 SE9       29.68F WCI  12
FORSYTH          N/A     19  19 100 E7        29.70F VSB 1/4 WCI  10
HARLOWTON      MOCLDY    19  18  93 NW7       29.62F WCI  10
LAUREL           N/A     21  13  71 MISG      29.66F
$$

REGIONAL REPORTS...DAKOTAS

CITY           SKY/WX    TMP DP  RH WIND       PRES   REMARKS
WILLISTON      CLOUDY    27  24  89 CALM      29.79S
MINOT          CLOUDY    27  22  81 W12       29.78R WCI  17
DICKINSON      CLOUDY    24  19  81 N5        29.75S
BEACH          CLOUDY    23  23 100 SE7       29.79R WCI  15
CROSBY         CLOUDY    25  23  93 W10       29.80S WCI  15
TIOGA          CLOUDY    25  25 100 W8        29.78S WCI  16
WATFORD CITY   CLOUDY    28  23  80 W3        29.78F
BISMARCK       CLOUDY    31  24  75 NW5       29.82S
GRAND FORKS    CLOUDY    32  28  85 W3        29.77S
FARGO          CLOUDY    34  30  85 W6        29.80S WCI  29
BUFFALO SD       N/A     18  13  80 SE8       29.68F WCI   8
RAPID CITY     CLOUDY    20  18  92 SW6       29.73S WCI  12
$$

REGIONAL REPORTS...WYOMING/IDAHO/WASHINGTON

CITY           SKY/WX    TMP DP  RH WIND       PRES   REMARKS
GILLETTE       CLOUDY    30  22  72 S9        29.61F WCI  22
SHERIDAN       CLOUDY    18  15  88 SW9       29.63S WCI   7
BUFFALO WY     CLOUDY    29  15  56 W6        29.60F WCI  23
CODY           CLOUDY    20  14  77 CALM      29.62S
YELLOWSTONE LA   N/A     15  14  95 CALM      29.63F
IDAHO FALLS    CLOUDY    29  29 100 CALM      29.63F
SALMON         CLOUDY     9   7  92 CALM      29.66S
BOISE          CLOUDY    28  26  92 CALM      29.60F
SPOKANE        FOG       32  31  96 E3        29.60F VSB 1/4
$$

REGIONAL REPORTS...ALBERTA

CITY           SKY/WX    TMP DP  RH WIND       PRES   REMARKS
EDMONTON       CLOUDY    14   7  73 NE2       29.87S
CALGARY        CLOUDY    19  18  93 E3        29.74S FOG
LETHBRIDGE     FRZ RAIN  21 N/A N/A NE8       29.77R VSB 1/4 WCI  12
MEDICINE HAT   CLOUDY    21  19  93 N6        29.80F WCI  14
WATERTON GATE    N/A     21  19  93 NE1         N/A
CARDSTON         N/A     21  21 100 CALM        N/A
MILK RIVER       N/A     21  19  93 NE5         N/A
ONEFOUR          N/A     21  21 100 N6          N/A  WCI  14
$$

REGIONAL REPORTS...SASKATCHEWAN

CITY           SKY/WX    TMP DP  RH WIND       PRES   REMARKS
SWIFT CURRENT  CLOUDY    18  18 100 NW10      29.75S FOG     WCI   6
REGINA         CLOUDY    19  16  86 W13       29.78R WCI   7
SASKATOON      FLURRIES  16  12  86 N10       29.81F WCI   3
CYPRESS HILLS    N/A     16  12  86 N2          N/A
VAL MARIE        N/A     23  21  93 N6          N/A  WCI  16
$$




USA.gov is the U.S. government's official web portal to all federal, state and local government web resources and services.